Meteo pe oră la Dabrowa

Astăzi, 14 Aprilie, Miercuri

Timp Temperatura Precipitaţii Vânt Presiune Umiditate
00:00 +3°C° 0 mm 2 m/s 760 mmHg 73%
01:00 +3°C° 0 mm 2 m/s 760 mmHg 73%
02:00 +3°C° 0 mm 2 m/s 760 mmHg 74%
03:00 +2°C° 0 mm 2 m/s 760 mmHg 75%
04:00 +1°C° 0 mm 3 m/s 760 mmHg 76%
05:00 +1°C° 0 mm 3 m/s 760 mmHg 76%
06:00 0°C° 0 mm 4 m/s 760 mmHg 76%
07:00 +1°C° 0 mm 4 m/s 760 mmHg 76%
08:00 +3°C° 0 mm 4 m/s 760 mmHg 72%
09:00 +4°C° 0 mm 4 m/s 760 mmHg 68%
10:00 +5°C° 0 mm 4 m/s 760 mmHg 65%
11:00 +5°C° 0.2 mm 5 m/s 760 mmHg 60%
12:00 +6°C° 0.2 mm 5 m/s 760 mmHg 56%
13:00 +6°C° 0.2 mm 5 m/s 760 mmHg 52%
14:00 +6°C° 0.1 mm 5 m/s 760 mmHg 50%
15:00 +6°C° 0.1 mm 5 m/s 759 mmHg 49%
16:00 +6°C° 0.1 mm 5 m/s 759 mmHg 47%
17:00 +5°C° 0 mm 4 m/s 759 mmHg 52%
18:00 +4°C° 0 mm 4 m/s 760 mmHg 56%
19:00 +3°C° 0 mm 3 m/s 760 mmHg 60%
20:00 +3°C° 0 mm 3 m/s 760 mmHg 66%
21:00 +2°C° 0 mm 3 m/s 760 mmHg 72%
22:00 +2°C° 0 mm 3 m/s 760 mmHg 79%
23:00 +2°C° 0 mm 3 m/s 760 mmHg 77%

Mâine, 15 Aprilie, Joi

Timp Temperatura Precipitaţii Vânt Presiune Umiditate
00:00 +2°C° 0 mm 3 m/s 760 mmHg 76%
01:00 +1°C° 0 mm 3 m/s 760 mmHg 74%
02:00 +1°C° 0 mm 3 m/s 760 mmHg 76%
03:00 +1°C° 0 mm 3 m/s 760 mmHg 77%
04:00 +1°C° 0 mm 3 m/s 760 mmHg 79%
05:00 0°C° 0.1 mm 4 m/s 760 mmHg 82%
06:00 0°C° 0.1 mm 4 m/s 760 mmHg 85%
07:00 0°C° 0.1 mm 5 m/s 760 mmHg 88%
08:00 0°C° 0.3 mm 5 m/s 760 mmHg 87%
09:00 +1°C° 0.3 mm 6 m/s 760 mmHg 87%
10:00 +1°C° 0.3 mm 6 m/s 760 mmHg 86%
11:00 +1°C° 0.7 mm 6 m/s 759 mmHg 88%
12:00 +1°C° 0.7 mm 6 m/s 759 mmHg 91%
13:00 +1°C° 0.7 mm 6 m/s 759 mmHg 93%
14:00 +1°C° 0.7 mm 6 m/s 759 mmHg 94%
15:00 +1°C° 0.7 mm 6 m/s 758 mmHg 95%
16:00 +1°C° 0.7 mm 6 m/s 758 mmHg 96%
17:00 +1°C° 0.8 mm 5 m/s 758 mmHg 97%
18:00 +1°C° 0.8 mm 5 m/s 758 mmHg 97%
19:00 +1°C° 0.8 mm 5 m/s 758 mmHg 97%
20:00 +1°C° 0.6 mm 5 m/s 758 mmHg 96%
21:00 +1°C° 0.6 mm 5 m/s 758 mmHg 95%
22:00 +1°C° 0.6 mm 5 m/s 758 mmHg 94%
23:00 +2°C° 0.2 mm 5 m/s 758 mmHg 92%

Poimâine, 16 Aprilie, Vineri

Timp Temperatura Precipitaţii Vânt Presiune Umiditate
00:00 +2°C° 0.2 mm 5 m/s 757 mmHg 90%
01:00 +3°C° 0.2 mm 4 m/s 757 mmHg 88%
02:00 +1°C° 0 mm 4 m/s 757 mmHg 88%
03:00 +1°C° 0 mm 4 m/s 757 mmHg 89%
04:00 +1°C° 0 mm 4 m/s 757 mmHg 89%
05:00 +1°C° 0 mm 4 m/s 758 mmHg 87%
06:00 +3°C° 0 mm 4 m/s 758 mmHg 85%
07:00 +3°C° 0 mm 4 m/s 758 mmHg 84%
08:00 +4°C° 0 mm 4 m/s 758 mmHg 79%
09:00 +5°C° 0 mm 4 m/s 758 mmHg 74%
10:00 +6°C° 0 mm 4 m/s 758 mmHg 69%
11:00 +6°C° 0 mm 4 m/s 758 mmHg 72%
12:00 +6°C° 0 mm 5 m/s 758 mmHg 74%
13:00 +6°C° 0 mm 5 m/s 758 mmHg 76%
14:00 +5°C° 0 mm 4 m/s 758 mmHg 82%
15:00 +5°C° 0 mm 4 m/s 758 mmHg 88%
16:00 +4°C° 0 mm 3 m/s 758 mmHg 93%
17:00 +4°C° 0 mm 3 m/s 758 mmHg 93%
18:00 +4°C° 0 mm 3 m/s 758 mmHg 92%
19:00 +5°C° 0 mm 2 m/s 758 mmHg 91%
20:00 +5°C° 0.1 mm 2 m/s 759 mmHg 92%
21:00 +5°C° 0.1 mm 2 m/s 759 mmHg 92%
22:00 +5°C° 0.1 mm 2 m/s 759 mmHg 92%
23:00 +5°C° 0 mm 2 m/s 758 mmHg 92%

17 Aprilie, Sâmbătă

Timp Temperatura Precipitaţii Vânt Presiune Umiditate
00:00 +5°C° 0 mm 2 m/s 758 mmHg 93%
01:00 +5°C° 0 mm 2 m/s 758 mmHg 93%
02:00 +5°C° 0 mm 2 m/s 758 mmHg 93%
03:00 +5°C° 0 mm 2 m/s 758 mmHg 94%
04:00 +5°C° 0 mm 2 m/s 758 mmHg 94%
05:00 +5°C° 0 mm 2 m/s 758 mmHg 93%
06:00 +5°C° 0 mm 2 m/s 758 mmHg 92%
07:00 +5°C° 0 mm 3 m/s 758 mmHg 90%
08:00 +5°C° 0 mm 3 m/s 758 mmHg 88%
09:00 +7°C° 0 mm 3 m/s 758 mmHg 86%
10:00 +8°C° 0 mm 3 m/s 758 mmHg 84%
11:00 +8°C° 0 mm 3 m/s 758 mmHg 84%
12:00 +9°C° 0 mm 3 m/s 758 mmHg 84%
13:00 +8°C° 0 mm 4 m/s 758 mmHg 84%
14:00 +9°C° 0.1 mm 3 m/s 758 mmHg 86%
15:00 +8°C° 0.1 mm 3 m/s 758 mmHg 88%
16:00 +8°C° 0.1 mm 3 m/s 758 mmHg 90%
17:00 +8°C° 0 mm 3 m/s 758 mmHg 91%
18:00 +8°C° 0 mm 3 m/s 758 mmHg 91%
19:00 +8°C° 0 mm 2 m/s 758 mmHg 92%
20:00 +8°C° 0.1 mm 3 m/s 758 mmHg 92%
21:00 +7°C° 0.1 mm 3 m/s 758 mmHg 93%
22:00 +7°C° 0.1 mm 3 m/s 758 mmHg 93%
23:00 +7°C° 0 mm 3 m/s 758 mmHg 94%

18 Aprilie, Duminică

Timp Temperatura Precipitaţii Vânt Presiune Umiditate
00:00 +5°C° 0 mm 3 m/s 757 mmHg 95%
01:00 +4°C° 0 mm 3 m/s 757 mmHg 96%
02:00 +5°C° 0 mm 2 m/s 757 mmHg 96%
03:00 +5°C° 0 mm 2 m/s 757 mmHg 96%
04:00 +5°C° 0 mm 2 m/s 757 mmHg 96%
05:00 +6°C° 0 mm 2 m/s 757 mmHg 94%
06:00 +6°C° 0 mm 2 m/s 757 mmHg 91%
07:00 +7°C° 0 mm 3 m/s 758 mmHg 89%
08:00 +8°C° 0 mm 3 m/s 758 mmHg 83%
09:00 +10°C° 0 mm 3 m/s 758 mmHg 78%
10:00 +11°C° 0 mm 4 m/s 758 mmHg 72%
11:00 +11°C° 0.1 mm 4 m/s 758 mmHg 69%
12:00 +11°C° 0.1 mm 4 m/s 757 mmHg 66%
13:00 +12°C° 0.1 mm 5 m/s 757 mmHg 63%
14:00 +12°C° 0 mm 4 m/s 757 mmHg 63%
15:00 +11°C° 0 mm 4 m/s 757 mmHg 63%
16:00 +11°C° 0 mm 4 m/s 757 mmHg 62%
17:00 +10°C° 0 mm 3 m/s 757 mmHg 66%
18:00 +10°C° 0 mm 3 m/s 758 mmHg 70%
19:00 +9°C° 0 mm 2 m/s 758 mmHg 73%
20:00 +9°C° 0 mm 2 m/s 758 mmHg 74%
21:00 +9°C° 0 mm 2 m/s 758 mmHg 74%
22:00 +8°C° 0 mm 2 m/s 758 mmHg 75%
23:00 +8°C° 0 mm 2 m/s 758 mmHg 76%

19 Aprilie, Luni

Timp Temperatura Precipitaţii Vânt Presiune Umiditate
00:00 +8°C° 0 mm 2 m/s 758 mmHg 77%
01:00 +8°C° 0 mm 2 m/s 758 mmHg 78%
02:00 +8°C° 0 mm 2 m/s 758 mmHg 82%
03:00 +8°C° 0 mm 2 m/s 757 mmHg 85%
04:00 +8°C° 0 mm 2 m/s 757 mmHg 89%
05:00 +8°C° 0.1 mm 3 m/s 757 mmHg 89%
06:00 +9°C° 0.1 mm 3 m/s 757 mmHg 89%
07:00 +8°C° 0.1 mm 4 m/s 757 mmHg 89%
08:00 +10°C° 0.1 mm 4 m/s 757 mmHg 86%
09:00 +11°C° 0.1 mm 4 m/s 757 mmHg 84%
10:00 +11°C° 0.1 mm 4 m/s 757 mmHg 81%
11:00 +12°C° 0.3 mm 5 m/s 757 mmHg 77%
12:00 +13°C° 0.3 mm 5 m/s 756 mmHg 72%
13:00 +13°C° 0.3 mm 6 m/s 756 mmHg 68%
14:00 +13°C° 0.1 mm 5 m/s 756 mmHg 67%
15:00 +13°C° 0.1 mm 5 m/s 756 mmHg 66%
16:00 +13°C° 0.1 mm 5 m/s 755 mmHg 65%
17:00 +12°C° 0.2 mm 4 m/s 755 mmHg 72%
18:00 +11°C° 0.2 mm 3 m/s 755 mmHg 78%
19:00 +10°C° 0.2 mm 3 m/s 755 mmHg 85%
20:00 +10°C° 0.1 mm 3 m/s 755 mmHg 86%
21:00 +10°C° 0.1 mm 3 m/s 755 mmHg 87%
22:00 +9°C° 0.1 mm 3 m/s 755 mmHg 88%
23:00 +8°C° 0.1 mm 4 m/s 755 mmHg 89%
Arată mai mult

Formular de consimțământ

Meteoprog și furnizorii noștri de servicii pot stoca și accesa date personale, precum cookies, identificatori de dispozitiv sau alte tehnologii similare pe dispozitivul dumneavoastră și procesa astfel de date pentru a personaliza conținutul și reclamele, dar și pentru a oferi caracteristici de social media și pentru a analiza traficul.

  • Stocarea și/sau accesarea informațiilor pe dispozitivul dumneavoastră

    Cookies, identificatori de dispozitiv sau alte informații pot fi stocate sau accesate pe dispozitiv în scopurile indicate mai sus.

  • Reclame și conținut personalizat, evaluarea reclamelor și a conținutului, informații despre audiențe și dezvoltarea produselor

    Reclamele și conținutul pot fi personalizate pe baza unui profil. Pot fi adăugate date suplimentare pentru a personaliza mai bine reclamele și conținutul. Performanța reclamelor și conținutului poate fi măsurată. Pot fi obținute informații despre utilizatorii care au văzut reclamele și conținutul. Aceste date pot fi utilizate pentru a dezvolta sau îmbunătăți experiența utilizatorilor, sistemele și software-ul.

Dând clic pe ‘Sunt de acord’, permiteți utilizarea cookie-urilor menționate, a identificatorilor de dispozitiv, balizelor web sau altor tehnologii similare. Setările pot fi modificate din browser-ul dispozitivului dumneavoastră.

În anumite scopuri, interesele legitime pot prima asupra consimțământului. Puteți citi mai multe informații în acest sens în Politica privind Confidențialitatea Datelor și Cookie.